Tracking 28091 objects as of 30-Sep-2023
HD Live streaming from Space Station
objects crossing your sky now

STARLINK-30137

Track STARLINK-30137 now!
10-day predictions
STARLINK-30137 is classified as:


NORAD ID: 56843
Int'l Code: 2023-079W
Perigee: 568.0 km
Apogee: 569.3 km
Inclination: 43.0 °
Period: 95.9 minutes
Semi major axis: 6939 km
RCS: Unknown
Launch date: June 4, 2023
Source: United States (US)
Launch site: AIR FORCE EASTERN TEST RANGE (AFETR)
Your satellite tracking list
Your tracking list is empty




NASA's NSSDC Master Catalog

Two Line Element Set (TLE):
1 56843U 23079W   23273.40196336  .00004998  00000-0  39287-3 0  9998
2 56843  43.0008 270.1043 0000916 252.4116 107.6626 15.01740665 18481
Source of the keplerian elements: AFSPC